Quick links : Home Page : Contact Us : Index : Site Map : Search Site : Ephemerides


(3753) Cruithne

Orbital Elements

The following orbital elements are taken from MPO124243
  (3753) Cruithne
Epoch 2007 Oct. 27.0 TT = JDT 2454400.5                 MPC
M 296.95894              (2000.0)            P               Q
n   0.98897797     Peri.   43.74497     -0.95193211     -0.13859612
a   0.9977268      Node   126.28961     +0.08778246     -0.97781095
e   0.5147751      Incl.   19.80945     +0.29346123     -0.15708871
P   1.00           H   15.1           G   0.15           U   3
From 434 observations at 25 oppositions, 1973-2007, mean residual 0".60.
An explanation of the orbital elements is available.

These orbital elements are also available in forms suitable for loading into a number of popular planetarium-type software programs.


Ephemeris

The following ephemeris is at intervals of five days. A daily ephemeris covering the same time interval is also available.

Personalized ephemerides for this (and other) objects may be generated using the Minor Planet & Comet Ephemeris Service.

Date    TT    R. A. (2000) Decl.     Delta      r     Elong.  Phase     V
2008 04 14    23 15.02   -08 02.3    1.954    1.316    37.9    27.9    18.4
2008 04 19    23 27.14   -07 25.0    1.949    1.341    39.8    28.6    18.4
2008 04 24    23 39.05   -06 48.3    1.939    1.365    41.8    29.4    18.5
2008 04 29    23 50.75   -06 12.6    1.926    1.386    43.7    30.2    18.5
2008 05 04    00 02.28   -05 38.1    1.910    1.406    45.8    30.9    18.6
2008 05 09    00 13.65   -05 04.9    1.890    1.425    47.8    31.7    18.6
2008 05 14    00 24.89   -04 33.3    1.867    1.441    49.9    32.4    18.6
2008 05 19    00 36.02   -04 03.6    1.841    1.456    52.0    33.2    18.6
2008 05 24    00 47.06   -03 35.8    1.812    1.468    54.1    34.0    18.6
2008 05 29    00 58.02   -03 10.2    1.780    1.480    56.2    34.7    18.6
2008 06 03    01 08.93   -02 47.0    1.745    1.489    58.4    35.4    18.6
2008 06 08    01 19.79   -02 26.5    1.708    1.497    60.5    36.2    18.6
2008 06 13    01 30.62   -02 09.0    1.669    1.503    62.6    36.9    18.6
2008 06 18    01 41.43   -01 54.5    1.627    1.507    64.8    37.6    18.6
2008 06 23    01 52.24   -01 43.4    1.584    1.510    66.9    38.3    18.5
2008 06 28    02 03.07   -01 36.0    1.539    1.511    69.1    38.9    18.5
2008 07 03    02 13.93   -01 32.6    1.491    1.511    71.2    39.6    18.4
2008 07 08    02 24.82   -01 33.5    1.443    1.508    73.4    40.2    18.4
2008 07 13    02 35.76   -01 39.0    1.393    1.505    75.5    40.8    18.3
2008 07 18    02 46.77   -01 49.5    1.343    1.499    77.5    41.5    18.2
2008 07 23    02 57.87   -02 05.2    1.291    1.492    79.6    42.1    18.2
2008 07 28    03 09.07   -02 26.8    1.239    1.483    81.6    42.7    18.1
2008 08 02    03 20.40   -02 54.6    1.186    1.472    83.6    43.2    18.0
2008 08 07    03 31.87   -03 29.2    1.133    1.460    85.5    43.8    17.9
2008 08 12    03 43.51   -04 10.9    1.080    1.445    87.3    44.4    17.8
2008 08 17    03 55.36   -05 00.4    1.027    1.430    89.0    45.1    17.7
2008 08 22    04 07.47   -05 58.2    0.974    1.412    90.6    45.7    17.5
2008 08 27    04 19.89   -07 05.0    0.922    1.393    92.1    46.5    17.4
2008 09 01    04 32.68   -08 21.5    0.870    1.371    93.4    47.3    17.3
2008 09 06    04 45.93   -09 48.4    0.820    1.348    94.5    48.2    17.1
2008 09 11    04 59.75   -11 26.0    0.771    1.323    95.3    49.2    17.0
2008 09 16    05 14.29   -13 15.2    0.723    1.297    95.8    50.5    16.8
2008 09 21    05 29.76   -15 16.4    0.677    1.268    95.9    52.0    16.7
2008 09 26    05 46.41   -17 30.1    0.633    1.237    95.6    53.7    16.5
2008 10 01    06 04.55   -19 56.1    0.592    1.205    94.8    55.9    16.4
2008 10 06    06 24.64   -22 33.7    0.552    1.170    93.4    58.5    16.3
2008 10 11    06 47.24   -25 20.8    0.516    1.133    91.2    61.7    16.1
2008 10 16    07 13.12   -28 13.5    0.483    1.095    88.3    65.5    16.0
2008 10 21    07 43.14   -31 05.3    0.454    1.054    84.6    70.1    16.0
2008 10 26    08 18.19   -33 44.8    0.430    1.011    79.9    75.4    15.9
2008 10 31    08 58.92   -35 55.3    0.411    0.967    74.4    81.5    15.9
2008 11 05    09 45.14   -37 15.1    0.399    0.920    68.1    88.2    16.0
2008 11 10    10 35.36   -37 23.8    0.396    0.872    61.2    95.3    16.2
2008 11 15    11 26.68   -36 11.1    0.403    0.822    54.3   102.2    16.4
2008 11 20    12 15.85   -33 44.8    0.421    0.771    47.7   108.4    16.7
2008 11 25    13 00.65   -30 28.7    0.451    0.719    42.1   113.0    17.0
2008 11 30    13 40.40   -26 53.1    0.494    0.668    37.7   115.3    17.2
2008 12 05    14 15.65   -23 24.9    0.551    0.618    34.7   114.8    17.2
2008 12 10    14 47.53   -20 23.4    0.621    0.572    32.8   111.2    17.1
2008 12 15    15 17.30   -17 59.5    0.704    0.533    31.6   104.7    16.8
2008 12 20    15 46.04   -16 17.4    0.798    0.503    30.6    95.6    16.5
 
2009 03 30    22 37.53   -10 00.6    1.960    1.234    32.1    25.5    18.2
2009 04 04    22 50.52   -09 22.2    1.966    1.265    33.9    26.1    18.3
2009 04 09    23 03.18   -08 43.8    1.968    1.294    35.7    26.8    18.3
2009 04 14    23 15.56   -08 05.6    1.966    1.321    37.5    27.6    18.4
2009 04 19    23 27.69   -07 27.9    1.961    1.346    39.5    28.3    18.5
2009 04 24    23 39.59   -06 50.9    1.951    1.369    41.4    29.1    18.5
2009 04 29    23 51.30   -06 14.9    1.938    1.391    43.4    29.8    18.5
2009 05 04    00 02.82   -05 40.0    1.921    1.410    45.4    30.6    18.6
2009 05 09    00 14.20   -05 06.4    1.902    1.428    47.5    31.4    18.6
2009 05 14    00 25.45   -04 34.4    1.878    1.444    49.5    32.2    18.6
2009 05 19    00 36.60   -04 04.2    1.852    1.458    51.6    32.9    18.6

Back to Observable Critical-List Minor Planets

MPC

Valid HTML 4.01!